GW5434 Weather Reports


Display with metric or nautical units.
time (UTC)temp
F
wind
direction
speed
MPH
gust
MPH
rain 1hr
in
rain 24hr
in
rain mn
in
humidity
%
barometer
mb
20260507131523 63 293 4.0 8.0 0.00 1.87 0.96 93 1015.3
20260507130022 64 40 2.0 7.0 0.00 1.87 0.96 94 1015.2
20260507124519 64 327 4.0 8.0 0.00 1.87 0.96 93 1015.1
20260507123019 65 1 4.0 9.0 0.00 1.87 0.96 94 1014.3
20260507121524 65 315 1.0 6.0 0.00 1.87 0.96 93 1014.2
20260507120028 65 333 2.0 9.0 0.00 1.87 0.96 93 1013.7
20260507114515 65 309 2.0 10.0 0.00 1.87 0.96 93 1013.3
20260507113020 66 36 5.0 9.0 0.00 1.87 0.96 93 1013.3
20260507111523 66 303 3.0 7.0 0.00 1.87 0.96 93 1013.0
20260507110029 66 343 4.0 8.0 0.00 1.87 0.96 93 1012.8
20260507104528 67 330 2.0 5.0 0.00 1.87 0.96 93 1012.4
20260507103017 67 328 2.0 5.0 0.00 1.87 0.96 93 1012.4
20260507101502 67 335 1.0 5.0 0.00 1.87 0.96 93 1012.1
20260507100006 67 297 1.0 5.0 0.12 1.87 0.96 93 1012.1
20260507094507 68 300 2.0 10.0 0.48 1.87 0.96 93 1012.2
20260507093023 68 294 4.0 8.0 0.50 1.87 0.96 93 1011.8
20260507091528 69 32 2.0 5.0 0.50 1.87 0.96 93 1011.6
20260507090005 69 247 2.0 5.0 0.44 1.75 0.84 93 1012.0
20260507084508 71 348 3.0 6.0 0.10 1.39 0.48 92 1011.5
20260507083010 71 300 1.0 6.0 0.08 1.37 0.46 93 1011.2
20260507081514 71 297 1.0 2.0 0.09 1.37 0.46 94 1011.0
20260507080020 71 291 1.0 3.0 0.04 1.31 0.40 93 1011.1
20260507074505 71 278 0.0 1.0 0.03 1.29 0.38 93 1011.2
20260507073006 71 279 1.0 3.0 0.03 1.29 0.38 93 1011.6
20260507071512 72 275 0.0 3.0 0.02 1.28 0.37 93 1011.5
20260507070018 72 281 1.0 4.0 0.01 1.27 0.36 93 1011.5
20260507064520 72 236 1.0 6.0 0.00 1.26 0.35 93 1011.7
20260507063018 72 269 0.0 1.0 0.00 1.26 0.35 92 1011.2
20260507061510 72 236 1.0 3.0 0.01 1.26 0.35 92 1011.4
20260507060029 73 283 2.0 6.0 0.35 1.26 0.35 91 1011.2
20260507054519 73 276 3.0 5.0 0.79 1.26 0.35 91 1011.3
20260507053021 73 293 1.0 7.0 0.93 1.26 0.35 92 1010.6
20260507051505 74 103 5.0 10.0 0.96 1.25 0.34 94 1010.3
20260507050011 74 97 2.0 5.0 0.62 0.91 0.00 94 1011.1
20260507044515 74 288 1.0 2.0 0.18 0.47 0.47 93 1011.4
20260507043020 74 121 0.0 2.0 0.04 0.33 0.33 92 1011.3
20260507041522 74 125 2.0 5.0 0.00 0.29 0.29 92 1011.2
20260507040006 74 108 2.0 6.0 0.00 0.29 0.29 92 1011.2
20260507034527 74 175 3.0 9.0 0.00 0.29 0.29 92 1011.0
20260507033015 73 118 1.0 8.0 0.00 0.29 0.29 93 1010.7
20260507031522 72 149 4.0 9.0 0.00 0.29 0.29 93 1011.2
20260507030022 71 198 2.0 10.0 0.00 0.29 0.29 93 1011.4
20260507024510 71 147 4.0 7.0 0.00 0.29 0.29 93 1011.3
20260507023012 70 153 2.0 4.0 0.00 0.29 0.29 92 1011.2
20260507021519 70 136 0.0 1.0 0.00 0.29 0.29 92 1011.2
20260507020030 70 92 0.0 1.0 0.00 0.29 0.29 91 1011.2
20260507014525 71 131 0.0 2.0 0.00 0.29 0.29 91 1011.7
20260507013019 71 160 1.0 6.0 0.00 0.29 0.29 90 1011.4
20260507011516 72 128 3.0 8.0 0.20 0.29 0.29 91 1011.7
20260507010026 73 124 4.0 11.0 0.23 0.29 0.29 90 1010.9
20260507004525 74 158 7.0 12.0 0.24 0.29 0.29 90 1011.1
20260507003025 76 221 6.0 13.0 0.24 0.29 0.29 92 1011.8
20260507001513 76 174 1.0 2.0 0.04 0.09 0.09 92 1011.2
20260507000019 76 174 0.0 2.0 0.01 0.06 0.06 92 1010.6
20260506234530 76 64 0.0 1.0 0.00 0.05 0.05 92 1009.8
20260506233036 76 109 0.0 2.0 0.00 0.05 0.05 91 1010.6
20260506231510 77 88 0.0 0.0 0.00 0.05 0.05 91 1010.5
20260506230014 78 174 0.0 4.0 0.00 0.05 0.05 89 1010.9
20260506224520 78 124 0.0 1.0 0.00 0.05 0.05 89 1010.9
20260506223003 78 113 0.0 1.0 0.00 0.05 0.05 88 1011.0
20260506221507 79 173 1.0 3.0 0.00 0.05 0.05 87 1011.2
20260506220022 79 177 1.0 6.0 0.00 0.05 0.05 86 1011.2
20260506214517 80 145 2.0 4.0 0.00 0.05 0.05 86 1011.6
20260506213022 81 173 0.0 4.0 0.01 0.05 0.05 86 1011.7
20260506211508 81 143 1.0 5.0 0.05 0.05 0.05 85 1012.0
20260506210017 80 174 0.0 2.0 0.05 0.05 0.05 88 1012.2
20260506204514 79 173 0.0 3.0 0.05 0.05 0.05 87 1012.1
20260506203019 80 271 3.0 11.0 0.04 0.04 0.04 84 1012.2
20260506201524 83 138 3.0 9.0 0.00 0.00 0.00 79 1012.3
20260506200007 84 271 4.0 8.0 0.00 0.00 0.00 77 1012.4
20260506194512 83 188 3.0 9.0 0.00 0.00 0.00 79 1012.8
20260506193014 82 173 3.0 13.0 0.00 0.00 0.00 80 1013.2
20260506191521 81 202 4.0 8.0 0.00 0.00 0.00 81 1013.5
20260506190024 81 145 3.0 9.0 0.00 0.00 0.00 81 1013.7
20260506184507 81 105 3.0 14.0 0.00 0.00 0.00 81 1013.8
20260506183010 81 176 5.0 10.0 0.00 0.00 0.00 80 1013.8
20260506181519 80 102 3.0 11.0 0.00 0.00 0.00 82 1013.9
20260506180020 80 144 4.0 7.0 0.00 0.00 0.00 83 1014.0
20260506174523 80 229 2.0 7.0 0.00 0.00 0.00 83 1014.2
20260506173011 79 201 6.0 13.0 0.00 0.00 0.00 84 1014.3
20260506171514 78 206 4.0 9.0 0.00 0.00 0.00 86 1014.4
20260506170017 77 176 3.0 9.0 0.00 0.00 0.00 87 1014.4
20260506164521 77 148 2.0 8.0 0.00 0.00 0.00 87 1014.4
20260506163025 75 176 1.0 5.0 0.00 0.00 0.00 89 1014.6
20260506161511 75 207 3.0 7.0 0.00 0.00 0.00 89 1014.6
20260506160019 74 174 2.0 5.0 0.00 0.00 0.00 90 1014.6
20260506154524 74 113 2.0 7.0 0.00 0.00 0.00 90 1014.6
20260506153023 73 126 1.0 2.0 0.00 0.00 0.00 91 1014.6
20260506151528 73 116 0.0 2.0 0.00 0.00 0.00 91 1014.6
20260506150012 73 98 0.0 1.0 0.00 0.00 0.00 91 1014.6
20260506144517 73 107 0.0 1.0 0.00 0.00 0.00 90 1014.7
20260506143026 73 105 0.0 1.0 0.00 0.00 0.00 90 1014.6
20260506141503 73 159 0.0 1.0 0.00 0.00 0.00 90 1014.4
20260506140005 73 144 0.0 1.0 0.00 0.00 0.00 89 1014.3
20260506134504 73 173 0.0 0.0 0.00 0.00 0.00 89 1014.2
20260506133007 73 99 1.0 2.0 0.00 0.00 0.00 88 1014.3